Total_Precipitation_Accumulation
0.20 0.17 0.25 0.27 0.25 0.28 0.37 0.35 0.28 0.14 0.12 0.13 0.13 0.14 0.14 0.13 0.13 0.11 0.08 0.08 0.08 0.10 0.13 0.16 0.18 0.21 0.25 0.32 0.40 0.45 0.46 0.54 0.56 0.65 0.73 0.73 0.72 0.76 0.85 0.97 1.05 1.06 1.02 0.95
0.20 0.13 0.18 0.22 0.18 0.18 0.20 0.15 0.13 0.10 0.13 0.14 0.15 0.14 0.14 0.13 0.12 0.13 0.10 0.09 0.09 0.11 0.14 0.18 0.23 0.27 0.30 0.33 0.37 0.44 0.45 0.51 0.53 0.61 0.71 0.74 0.69 0.73 0.83 0.94 0.99 0.99 0.99 0.96
0.39 0.16 0.32 0.35 0.18 0.16 0.16 0.14 0.12 0.14 0.16 0.15 0.15 0.15 0.16 0.15 0.13 0.12 0.11 0.11 0.10 0.12 0.16 0.20 0.26 0.27 0.33 0.34 0.38 0.44 0.45 0.47 0.54 0.61 0.64 0.72 0.72 0.74 0.83 0.92 0.94 0.94 0.91 0.89
0.66 0.48 0.68 0.31 0.13 0.12 0.15 0.16 0.14 0.13 0.12 0.13 0.15 0.17 0.19 0.17 0.16 0.14 0.14 0.15 0.13 0.14 0.18 0.19 0.24 0.24 0.29 0.32 0.41 0.47 0.48 0.45 0.51 0.58 0.60 0.71 0.76 0.76 0.86 0.93 0.89 0.89 0.87 0.84
0.91 0.66 0.32 0.15 0.15 0.18 0.24 0.24 0.16 0.12 0.08 0.08 0.11 0.15 0.19 0.16 0.15 0.15 0.16 0.18 0.17 0.17 0.18 0.18 0.22 0.23 0.23 0.28 0.38 0.47 0.50 0.44 0.47 0.55 0.60 0.69 0.75 0.81 0.88 0.94 0.88 0.85 0.82 0.83
0.99 0.70 0.29 0.17 0.13 0.15 0.23 0.32 0.17 0.11 0.09 0.08 0.12 0.20 0.21 0.16 0.15 0.15 0.15 0.17 0.18 0.17 0.17 0.19 0.22 0.24 0.22 0.25 0.32 0.43 0.50 0.42 0.44 0.50 0.53 0.61 0.69 0.79 0.85 0.84 0.82 0.83 0.79 0.79
0.82 0.60 0.19 0.13 0.15 0.17 0.36 0.39 0.18 0.12 0.11 0.10 0.14 0.18 0.17 0.17 0.18 0.18 0.18 0.17 0.16 0.16 0.18 0.20 0.23 0.24 0.24 0.26 0.28 0.37 0.49 0.44 0.46 0.49 0.52 0.59 0.68 0.70 0.76 0.80 0.78 0.82 0.80 0.77
0.60 0.63 0.26 0.15 0.22 0.36 0.39 0.20 0.13 0.11 0.09 0.09 0.09 0.08 0.09 0.13 0.18 0.21 0.19 0.17 0.17 0.16 0.17 0.18 0.21 0.24 0.26 0.29 0.29 0.36 0.44 0.45 0.50 0.54 0.56 0.60 0.65 0.62 0.65 0.75 0.78 0.80 0.84 0.86
0.49 0.32 0.17 0.16 0.22 0.24 0.19 0.15 0.11 0.10 0.08 0.08 0.07 0.07 0.09 0.12 0.17 0.21 0.20 0.18 0.18 0.18 0.16 0.17 0.19 0.23 0.29 0.33 0.33 0.38 0.42 0.44 0.49 0.56 0.59 0.61 0.60 0.59 0.63 0.69 0.76 0.80 0.83 0.84
0.33 0.18 0.12 0.12 0.13 0.13 0.11 0.10 0.10 0.09 0.08 0.08 0.08 0.07 0.09 0.11 0.16 0.19 0.20 0.19 0.20 0.20 0.18 0.18 0.18 0.21 0.28 0.35 0.34 0.38 0.41 0.42 0.47 0.52 0.58 0.62 0.58 0.55 0.56 0.63 0.73 0.75 0.78 0.77
0.23 0.12 0.12 0.12 0.09 0.08 0.07 0.06 0.07 0.07 0.06 0.06 0.07 0.08 0.09 0.10 0.15 0.19 0.21 0.20 0.20 0.21 0.20 0.20 0.20 0.23 0.30 0.34 0.34 0.38 0.38 0.38 0.42 0.44 0.55 0.65 0.64 0.58 0.56 0.55 0.68 0.76 0.74 0.73
0.15 0.10 0.13 0.13 0.09 0.08 0.07 0.07 0.08 0.08 0.07 0.05 0.06 0.07 0.09 0.10 0.12 0.19 0.23 0.22 0.21 0.21 0.21 0.21 0.23 0.27 0.33 0.35 0.35 0.35 0.36 0.37 0.39 0.43 0.51 0.59 0.63 0.64 0.70 0.67 0.68 0.67 0.66 0.71
0.08 0.07 0.07 0.07 0.07 0.07 0.07 0.07 0.07 0.08 0.09 0.07 0.06 0.07 0.09 0.10 0.11 0.17 0.21 0.22 0.22 0.24 0.24 0.24 0.26 0.29 0.34 0.36 0.37 0.36 0.36 0.37 0.40 0.43 0.48 0.54 0.55 0.56 0.67 0.77 0.79 0.71 0.66 0.67
0.04 0.04 0.04 0.05 0.07 0.08 0.08 0.07 0.05 0.06 0.08 0.07 0.07 0.07 0.07 0.09 0.10 0.16 0.22 0.23 0.22 0.22 0.24 0.28 0.29 0.33 0.36 0.40 0.41 0.39 0.36 0.41 0.45 0.44 0.48 0.53 0.53 0.51 0.54 0.61 0.68 0.71 0.72 0.69
0.03 0.04 0.04 0.03 0.04 0.07 0.08 0.07 0.06 0.06 0.08 0.08 0.07 0.06 0.07 0.09 0.12 0.18 0.23 0.23 0.22 0.21 0.24 0.29 0.32 0.37 0.40 0.44 0.44 0.39 0.39 0.41 0.45 0.45 0.48 0.53 0.54 0.52 0.52 0.53 0.55 0.60 0.67 0.75
0.04 0.04 0.03 0.03 0.03 0.05 0.08 0.08 0.08 0.07 0.08 0.09 0.08 0.07 0.07 0.09 0.12 0.16 0.21 0.25 0.26 0.26 0.28 0.30 0.36 0.42 0.46 0.48 0.47 0.43 0.45 0.51 0.53 0.49 0.50 0.56 0.58 0.58 0.56 0.55 0.57 0.58 0.61 0.68
0.06 0.05 0.04 0.04 0.04 0.05 0.07 0.09 0.08 0.07 0.08 0.09 0.08 0.07 0.07 0.09 0.11 0.13 0.17 0.22 0.26 0.29 0.31 0.34 0.40 0.45 0.50 0.54 0.53 0.50 0.50 0.53 0.59 0.54 0.53 0.60 0.65 0.64 0.61 0.62 0.63 0.60 0.58 0.63
0.05 0.05 0.05 0.05 0.04 0.04 0.06 0.08 0.08 0.07 0.08 0.09 0.09 0.08 0.09 0.11 0.13 0.15 0.19 0.22 0.25 0.26 0.29 0.36 0.44 0.49 0.51 0.57 0.59 0.55 0.54 0.56 0.58 0.57 0.57 0.62 0.68 0.67 0.66 0.66 0.66 0.65 0.61 0.65
0.03 0.04 0.05 0.04 0.04 0.04 0.05 0.07 0.08 0.07 0.08 0.09 0.10 0.11 0.12 0.13 0.15 0.17 0.19 0.22 0.25 0.29 0.33 0.37 0.46 0.48 0.50 0.57 0.63 0.59 0.58 0.62 0.65 0.65 0.61 0.67 0.71 0.70 0.69 0.69 0.68 0.64 0.64 0.64
0.04 0.04 0.05 0.05 0.04 0.04 0.05 0.06 0.08 0.08 0.08 0.10 0.11 0.12 0.13 0.13 0.16 0.18 0.20 0.22 0.29 0.39 0.41 0.45 0.48 0.51 0.53 0.55 0.61 0.63 0.67 0.68 0.71 0.72 0.68 0.68 0.71 0.74 0.73 0.71 0.70 0.68 0.67 0.66
0.05 0.06 0.06 0.06 0.05 0.04 0.05 0.06 0.09 0.10 0.10 0.12 0.13 0.14 0.15 0.15 0.17 0.20 0.22 0.23 0.26 0.36 0.42 0.49 0.53 0.57 0.57 0.59 0.64 0.68 0.73 0.73 0.75 0.79 0.78 0.75 0.75 0.77 0.75 0.74 0.73 0.70 0.68 0.68
0.07 0.08 0.08 0.08 0.07 0.06 0.06 0.07 0.10 0.12 0.13 0.14 0.14 0.15 0.16 0.16 0.18 0.20 0.23 0.27 0.30 0.39 0.46 0.51 0.58 0.65 0.68 0.68 0.65 0.70 0.75 0.75 0.77 0.80 0.82 0.79 0.79 0.81 0.79 0.77 0.78 0.73 0.68 0.68
0.10 0.11 0.11 0.10 0.09 0.08 0.08 0.09 0.10 0.14 0.16 0.17 0.18 0.18 0.19 0.20 0.21 0.25 0.28 0.29 0.34 0.44 0.51 0.57 0.67 0.74 0.78 0.70 0.67 0.71 0.76 0.77 0.79 0.82 0.84 0.81 0.79 0.81 0.81 0.80 0.79 0.76 0.73 0.70
0.15 0.15 0.14 0.13 0.11 0.11 0.12 0.12 0.13 0.16 0.20 0.22 0.23 0.24 0.25 0.25 0.25 0.27 0.32 0.37 0.42 0.51 0.57 0.65 0.73 0.78 0.81 0.74 0.71 0.75 0.79 0.79 0.78 0.82 0.84 0.84 0.84 0.84 0.82 0.81 0.81 0.75 0.70 0.67
0.19 0.18 0.17 0.17 0.18 0.18 0.17 0.17 0.18 0.21 0.24 0.26 0.26 0.28 0.30 0.31 0.32 0.33 0.36 0.40 0.47 0.53 0.59 0.66 0.73 0.79 0.80 0.79 0.77 0.79 0.81 0.82 0.84 0.88 0.89 0.88 0.86 0.85 0.83 0.79 0.76 0.74 0.70 0.67
0.23 0.23 0.23 0.23 0.23 0.24 0.23 0.22 0.24 0.25 0.27 0.29 0.29 0.30 0.34 0.36 0.37 0.39 0.41 0.45 0.50 0.56 0.59 0.63 0.70 0.77 0.80 0.81 0.80 0.81 0.83 0.87 0.90 0.87 0.84 0.84 0.83 0.83 0.82 0.77 0.72 0.69 0.69 0.66
0.29 0.28 0.28 0.29 0.29 0.29 0.29 0.29 0.30 0.32 0.33 0.34 0.35 0.35 0.36 0.38 0.40 0.42 0.45 0.49 0.53 0.57 0.61 0.65 0.71 0.77 0.81 0.84 0.86 0.87 0.87 0.86 0.86 0.85 0.85 0.82 0.80 0.80 0.78 0.75 0.72 0.69 0.67 0.65